Zanesville, OH

10:25 PM EDT on August 18, 2017 (GMT -0400)
Zanesville Municipal

Weather History for KZZV - April, 2013

Change the Weather History Date:

Saturday, April 27, 2013

  Actual Average Record
Temperature  
Mean Temperature 53 °F 55 °F  
Max Temperature 71 °F 67 °F 88 °F (1986)
Min Temperature 34 °F 43 °F 26 °F (1971)
Degree Days  
Heating Degree Days 12 10  
Month to date heating degree days 373 383  
Since 1 July heating degree days 5390 5327  
Cooling Degree Days 0 0  
Month to date cooling degree days 17 0  
Year to date cooling degree days 17 1  
Growing Degree Days 2 (Base 50)    
Moisture  
Dew Point 33 °F    
Average Humidity 56    
Maximum Humidity 89    
Minimum Humidity 22    
Precipitation  
Precipitation 0.00 in 0.12 in 1.07 in (1973)
Month to date precipitation 1.57 3.11  
Year to date precipitation 8.23 10.94  
Sea Level Pressure  
Sea Level Pressure 30.27 in    
Wind  
Wind Speed 4 mph (SSE)    
Max Wind Speed 15 mph    
Max Gust Speed 20 mph    
Visibility 10 miles    
Events      
T = Trace of Precipitation, MM = Missing Value Source: NWS Daily Summary

Daily Weather History Graph

Daily Weather History Graph

Search for Another Location

Airport or City:

Trip Planner

Search our weather history database for the weather conditions in past years. The results will help you decide how hot, cold, wet, or windy it might be!

Date:

Astronomy

Apr. 27, 2013 Rise Set
Actual Time 6:32 AM EDT 8:18 PM EDT
Civil Twilight 6:03 AM EDT 8:47 PM EDT
Nautical Twilight 5:28 AM EDT 9:22 PM EDT
Astronomical Twilight 4:51 AM EDT 10:00 PM EDT
Moon 10:46 PM EDT (4/27) 7:50 AM EDT (4/27)
Length of Visible Light 14h 43m
Length of Day
13h 45m
Waning Gibbous, 95% of the Moon is Illuminated
Apr 27
Waning Gibbous
May 2
Last Quarter
May 9
New
May 18
First Quarter
May 25
Full

Hourly Weather History & Observations

Time (EDT) Temp. Dew Point Humidity Pressure Visibility Wind Dir Wind Speed Gust Speed Precip Events Conditions
12:53 AM 42.1 °F 34.0 °F 73% 30.38 in 10.0 mi Calm Calm - N/A   Clear
1:53 AM 39.9 °F 34.0 °F 79% 30.38 in 10.0 mi Calm Calm - N/A   Clear
2:53 AM 39.0 °F 34.0 °F 82% 30.36 in 10.0 mi Calm Calm - N/A   Clear
3:53 AM 35.1 °F 32.0 °F 89% 30.37 in 10.0 mi Calm Calm - N/A   Clear
4:53 AM 36.0 °F 32.0 °F 86% 30.36 in 10.0 mi Calm Calm - N/A   Clear
5:53 AM 35.1 °F 32.0 °F 89% 30.36 in 10.0 mi Calm Calm - N/A   Clear
6:53 AM 35.1 °F 32.0 °F 89% 30.36 in 10.0 mi Calm Calm - N/A   Clear
7:53 AM 41.0 °F 34.0 °F 76% 30.36 in 10.0 mi Calm Calm - N/A   Clear
8:53 AM 50.0 °F 35.1 °F 57% 30.36 in 10.0 mi Calm Calm - N/A   Clear
9:53 AM 57.0 °F 37.9 °F 49% 30.34 in 10.0 mi Calm Calm - N/A   Clear
10:53 AM 61.0 °F 33.1 °F 35% 30.32 in 10.0 mi East 5.8 mph - N/A   Clear
11:53 AM 64.0 °F 32.0 °F 30% 30.30 in 10.0 mi ESE 6.9 mph - N/A   Clear
12:53 PM 66.0 °F 30.0 °F 26% 30.28 in 10.0 mi SSE 5.8 mph - N/A   Clear
1:53 PM 68.0 °F 30.0 °F 24% 30.25 in 10.0 mi South 8.1 mph - N/A   Clear
2:53 PM 69.1 °F 28.9 °F 22% 30.24 in 10.0 mi SSE 8.1 mph - N/A   Clear
3:53 PM 70.0 °F 30.0 °F 23% 30.22 in 10.0 mi SSW 9.2 mph - N/A   Clear
4:53 PM 70.0 °F 30.9 °F 24% 30.19 in 10.0 mi SSE 8.1 mph - N/A   Clear
5:53 PM 70.0 °F 30.9 °F 24% 30.18 in 10.0 mi ESE 8.1 mph - N/A   Clear
6:53 PM 66.9 °F 34.0 °F 30% 30.17 in 10.0 mi SE 4.6 mph - N/A   Clear
7:53 PM 66.9 °F 32.0 °F 27% 30.15 in 10.0 mi Calm Calm - N/A   Clear
8:53 PM 62.1 °F 35.1 °F 37% 30.14 in 10.0 mi SE 4.6 mph - N/A   Clear
9:53 PM 61.0 °F 37.9 °F 42% 30.15 in 10.0 mi SSW 5.8 mph - N/A   Mostly Cloudy
10:53 PM 60.1 °F 39.0 °F 46% 30.14 in 10.0 mi SSW 4.6 mph - N/A   Mostly Cloudy
11:53 PM 57.9 °F 41.0 °F 53% 30.12 in 10.0 mi South 5.8 mph - N/A   Partly Cloudy